User: anonymous   Login
Location: Bergnershof
(48.9468°N, 10.9431°E)
Time: 10:47:33
(UTC+00:00)
Language:

Cosmos 192 - Orbit

View from above orbital plane
View from above orbital plane
View from above satellite
View from above satellite

Ground track
Ground track

The orbit data is extracted from the following two-line orbital elements,

1 03047U 67116A   21131.86603915  .00000019  00000-0  10950-4 0  9990
2 03047  74.0112 314.1896 0009066 223.7212 136.3234 14.55677666827498
Epoch (UTC): 11 May 2021 20:47:05
Eccentricity: 0.0009066
inclination: 74.0112°
perigee height: 701 km
apogee height: 713 km
right ascension of ascending node: 314.1896°
argument of perigee: 223.7212°
revolutions per day: 14.55677666
mean anomaly at epoch: 136.3234°
orbit number at epoch: 82749

The dashed part of the orbit path shows where the satellite is in the earth's shadow,  

DLR